VCV75 SVBI-SVMI

Flight info

Callsign VCV75
Flight time 0h 43m
Altitude 31000
Route UGTAM1 ICION DCT PBL ALDAK1
Aircraft E190/M-SDE3GILORVW/S

Departure

Time 2026-05-05 21:09
Airport Barinas Airport (SVBI)

Arrival

Time 2026-05-05 21:53
Airport Maiquetía Simón Bolívar International Airport (SVMI)
Time Latitude Longitude Altitude Speed Heading
2026-05-05 20:58 8.62136 -70.22077 638 ft 0 kts 354°
2026-05-05 21:04 8.62123 -70.22075 638 ft 3 kts 354°
2026-05-05 21:05 8.62109 -70.22074 633 ft 0 kts 354°
2026-05-05 21:06 8.62110 -70.22074 633 ft 0 kts 354°
2026-05-05 21:06 8.62117 -70.22071 636 ft 1 kts 23°
2026-05-05 21:06 8.62121 -70.22065 642 ft 1 kts 56°
2026-05-05 21:06 8.62121 -70.22060 638 ft 1 kts 78°
2026-05-05 21:07 8.62118 -70.22051 636 ft 2 kts 107°
2026-05-05 21:07 8.62103 -70.22040 633 ft 5 kts 158°
2026-05-05 21:07 8.62047 -70.22057 632 ft 13 kts 212°
2026-05-05 21:07 8.62025 -70.22143 634 ft 10 kts 288°
2026-05-05 21:08 8.62002 -70.22165 637 ft 5 kts 137°
2026-05-05 21:08 8.61960 -70.22095 634 ft 31 kts 123°
2026-05-05 21:08 8.61713 -70.21711 637 ft 97 kts 123°
2026-05-05 21:08 8.61236 -70.20974 637 ft 152 kts 122°
2026-05-05 21:09 8.60594 -70.20008 984 ft 173 kts 124°
2026-05-05 21:09 8.59882 -70.18974 1590 ft 189 kts 124°
2026-05-05 21:09 8.59056 -70.17835 2244 ft 210 kts 126°
2026-05-05 21:09 8.58118 -70.16642 3071 ft 229 kts 129°
2026-05-05 21:10 8.56895 -70.15334 3114 ft 289 kts 135°
2026-05-05 21:10 8.55388 -70.13958 3250 ft 281 kts 138°
2026-05-05 21:10 8.54104 -70.12500 3810 ft 288 kts 113°
2026-05-05 21:10 8.53831 -70.10542 5115 ft 285 kts 81°
2026-05-05 21:11 8.54634 -70.08731 6332 ft 287 kts 49°
2026-05-05 21:11 8.56296 -70.07651 7521 ft 290 kts 17°
2026-05-05 21:11 8.58299 -70.07595 8708 ft 292 kts 352°
2026-05-05 21:11 8.60285 -70.08088 9849 ft 295 kts 346°
2026-05-05 21:12 8.62355 -70.08554 10459 ft 318 kts 354°
2026-05-05 21:12 8.64653 -70.08650 10871 ft 344 kts
2026-05-05 21:12 8.67093 -70.08534 11608 ft 354 kts 12°
2026-05-05 21:12 8.69379 -70.07745 12652 ft 351 kts 31°
2026-05-05 21:13 8.71426 -70.06388 13673 ft 354 kts 37°
2026-05-05 21:13 8.73575 -70.05126 14570 ft 360 kts 30°
2026-05-05 21:13 8.75835 -70.03975 15524 ft 364 kts 30°
2026-05-05 21:13 8.77347 -70.03221 16137 ft 367 kts 31°
2026-05-05 21:14 8.80024 -70.01120 17336 ft 365 kts 48°
2026-05-05 21:14 8.81787 -69.99259 18181 ft 369 kts 49°
2026-05-05 21:14 8.83567 -69.97412 18837 ft 374 kts 47°
2026-05-05 21:14 8.85398 -69.95521 19440 ft 379 kts 47°
2026-05-05 21:15 8.87261 -69.93604 20030 ft 385 kts 46°
2026-05-05 21:15 8.89155 -69.91661 20610 ft 390 kts 46°
2026-05-05 21:15 8.91074 -69.89693 21172 ft 396 kts 46°
2026-05-05 21:15 8.93019 -69.87698 21729 ft 401 kts 45°
2026-05-05 21:16 8.94992 -69.85675 22285 ft 406 kts 45°
2026-05-05 21:16 8.96986 -69.83633 22841 ft 410 kts 45°
2026-05-05 21:16 8.99000 -69.81567 23385 ft 415 kts 45°
2026-05-05 21:16 9.01035 -69.79478 23853 ft 419 kts 45°
2026-05-05 21:17 9.03086 -69.77370 24295 ft 422 kts 45°
2026-05-05 21:17 9.05155 -69.75247 24716 ft 425 kts 45°
2026-05-05 21:17 9.07239 -69.73103 25130 ft 429 kts 45°
2026-05-05 21:17 9.09337 -69.70945 25526 ft 432 kts 45°
2026-05-05 21:18 9.11450 -69.68770 25913 ft 435 kts 45°
2026-05-05 21:18 9.13578 -69.66578 26292 ft 438 kts 45°
2026-05-05 21:18 9.15722 -69.64369 26644 ft 442 kts 45°
2026-05-05 21:18 9.17890 -69.62134 27003 ft 445 kts 45°
2026-05-05 21:19 9.20066 -69.59889 27359 ft 448 kts 45°
2026-05-05 21:19 9.22260 -69.57626 27698 ft 451 kts 44°
2026-05-05 21:19 9.24468 -69.55346 28037 ft 455 kts 45°
2026-05-05 21:19 9.26690 -69.53051 28375 ft 457 kts 44°
2026-05-05 21:20 9.28923 -69.50745 28698 ft 460 kts 44°
2026-05-05 21:20 9.31169 -69.48422 29055 ft 462 kts 45°
2026-05-05 21:20 9.33387 -69.46128 29485 ft 462 kts 44°
2026-05-05 21:20 9.35632 -69.43805 29912 ft 461 kts 44°
2026-05-05 21:21 9.37877 -69.41482 30311 ft 460 kts 44°
2026-05-05 21:21 9.40052 -69.39095 30688 ft 459 kts 49°
2026-05-05 21:21 9.42069 -69.36604 31009 ft 452 kts 49°
2026-05-05 21:21 9.44044 -69.34193 30928 ft 436 kts 49°
2026-05-05 21:22 9.45950 -69.31875 30929 ft 420 kts 49°
2026-05-05 21:22 9.47794 -69.29638 30932 ft 408 kts 49°
2026-05-05 21:22 9.51384 -69.25298 30949 ft 402 kts 49°
2026-05-05 21:23 9.54995 -69.20938 30934 ft 403 kts 49°
2026-05-05 21:23 9.58601 -69.16585 30933 ft 403 kts 49°
2026-05-05 21:24 9.62214 -69.12225 30938 ft 403 kts 48°
2026-05-05 21:24 9.65825 -69.07867 30937 ft 403 kts 48°
2026-05-05 21:25 9.69419 -69.03526 30941 ft 403 kts 48°
2026-05-05 21:25 9.73030 -68.99165 30956 ft 403 kts 48°
2026-05-05 21:26 9.76611 -68.94837 30967 ft 403 kts 48°
2026-05-05 21:26 9.80236 -68.90456 30908 ft 403 kts 48°
2026-05-05 21:27 9.83807 -68.86139 30923 ft 402 kts 48°
2026-05-05 21:27 9.87405 -68.81785 30930 ft 402 kts 48°
2026-05-05 21:28 9.91002 -68.77433 30932 ft 402 kts 48°
2026-05-05 21:28 9.94597 -68.73079 30927 ft 402 kts 48°
2026-05-05 21:29 9.98171 -68.68752 30952 ft 402 kts 48°
2026-05-05 21:29 10.01768 -68.64396 30939 ft 402 kts 48°
2026-05-05 21:30 10.05354 -68.60047 30945 ft 402 kts 48°
2026-05-05 21:30 10.08964 -68.55674 30526 ft 407 kts 48°
2026-05-05 21:31 10.10775 -68.53477 30283 ft 406 kts 48°
2026-05-05 21:31 10.12600 -68.51266 29628 ft 411 kts 48°
2026-05-05 21:31 10.14426 -68.49048 29141 ft 408 kts 48°
2026-05-05 21:31 10.16243 -68.46844 28565 ft 407 kts 48°
2026-05-05 21:32 10.18049 -68.44652 28025 ft 403 kts 48°
2026-05-05 21:32 10.19840 -68.42478 27482 ft 399 kts 48°
2026-05-05 21:32 10.21608 -68.40331 26965 ft 394 kts 48°
2026-05-05 21:32 10.23358 -68.38208 26439 ft 388 kts 48°
2026-05-05 21:33 10.25083 -68.36114 25933 ft 384 kts 48°
2026-05-05 21:33 10.26765 -68.34070 25430 ft 380 kts 48°
2026-05-05 21:33 10.28449 -68.32023 24927 ft 376 kts 48°
2026-05-05 21:33 10.30118 -68.29997 24422 ft 372 kts 48°
2026-05-05 21:34 10.31769 -68.27989 23937 ft 368 kts 48°
2026-05-05 21:34 10.33411 -68.25997 23430 ft 365 kts 48°
2026-05-05 21:34 10.35026 -68.24030 22949 ft 359 kts 49°
2026-05-05 21:34 10.36612 -68.22102 22480 ft 353 kts 49°
2026-05-05 21:35 10.38177 -68.20201 22013 ft 348 kts 49°
2026-05-05 21:35 10.39721 -68.18324 21554 ft 343 kts 49°
2026-05-05 21:35 10.41223 -68.16499 21106 ft 339 kts 50°
2026-05-05 21:35 10.42727 -68.14670 20666 ft 336 kts 50°
2026-05-05 21:36 10.44222 -68.12853 20209 ft 334 kts 50°
2026-05-05 21:36 10.45710 -68.11044 19778 ft 333 kts 50°
2026-05-05 21:36 10.47192 -68.09237 19333 ft 332 kts 51°
2026-05-05 21:36 10.48420 -68.07266 18878 ft 331 kts 68°
2026-05-05 21:37 10.49051 -68.05033 18482 ft 328 kts 76°
2026-05-05 21:37 10.49567 -68.02773 17982 ft 327 kts 76°
2026-05-05 21:37 10.50085 -68.00540 17578 ft 321 kts 76°
2026-05-05 21:37 10.50593 -67.98372 17150 ft 318 kts 76°
2026-05-05 21:38 10.51104 -67.96195 16736 ft 315 kts 76°
2026-05-05 21:38 10.51613 -67.94035 16324 ft 313 kts 76°
2026-05-05 21:38 10.52143 -67.91893 15912 ft 311 kts 76°
2026-05-05 21:38 10.52662 -67.89767 15501 ft 309 kts 76°
2026-05-05 21:39 10.53177 -67.87650 15097 ft 307 kts 77°
2026-05-05 21:39 10.53682 -67.85543 14679 ft 306 kts 77°
2026-05-05 21:39 10.54181 -67.83453 14277 ft 303 kts 77°
2026-05-05 21:39 10.54673 -67.81380 13881 ft 301 kts 77°
2026-05-05 21:40 10.54997 -67.80016 13597 ft 299 kts 77°
2026-05-05 21:40 10.55482 -67.77967 13215 ft 296 kts 77°
2026-05-05 21:40 10.55961 -67.75943 12825 ft 294 kts 78°
2026-05-05 21:40 10.56437 -67.73923 12450 ft 294 kts 78°
2026-05-05 21:41 10.56914 -67.71906 12050 ft 293 kts 78°
2026-05-05 21:41 10.57387 -67.69898 11660 ft 291 kts 78°
2026-05-05 21:41 10.57858 -67.67901 11279 ft 290 kts 78°
2026-05-05 21:41 10.58269 -67.65932 10894 ft 288 kts 85°
2026-05-05 21:42 10.58312 -67.63908 10515 ft 286 kts 91°
2026-05-05 21:42 10.58355 -67.61889 10143 ft 286 kts 89°
2026-05-05 21:42 10.58417 -67.59875 9757 ft 285 kts 90°
2026-05-05 21:42 10.58481 -67.57866 9374 ft 283 kts 90°
2026-05-05 21:43 10.58546 -67.55874 9007 ft 281 kts 90°
2026-05-05 21:43 10.58611 -67.53890 8635 ft 281 kts 90°
2026-05-05 21:43 10.58678 -67.51911 8267 ft 279 kts 90°
2026-05-05 21:43 10.58745 -67.49943 7892 ft 276 kts 90°
2026-05-05 21:44 10.58810 -67.48005 7529 ft 273 kts 90°
2026-05-05 21:44 10.58876 -67.46079 7171 ft 271 kts 90°
2026-05-05 21:44 10.58940 -67.44172 6815 ft 269 kts 90°
2026-05-05 21:44 10.59004 -67.42275 6458 ft 268 kts 90°
2026-05-05 21:45 10.59069 -67.40390 6094 ft 266 kts 90°
2026-05-05 21:45 10.59130 -67.38523 5753 ft 263 kts 89°
2026-05-05 21:45 10.59190 -67.36693 5409 ft 261 kts 89°
2026-05-05 21:45 10.59252 -67.34856 5072 ft 259 kts 89°
2026-05-05 21:46 10.59316 -67.33027 4727 ft 258 kts 89°
2026-05-05 21:46 10.59377 -67.31207 4383 ft 257 kts 89°
2026-05-05 21:46 10.59439 -67.29423 4226 ft 248 kts 88°
2026-05-05 21:46 10.59512 -67.27725 4140 ft 233 kts 88°
2026-05-05 21:47 10.59573 -67.26143 4062 ft 215 kts 88°
2026-05-05 21:47 10.59622 -67.24668 3930 ft 202 kts 89°
2026-05-05 21:47 10.59668 -67.23279 3797 ft 191 kts 89°
2026-05-05 21:47 10.59710 -67.21955 3673 ft 186 kts 88°
2026-05-05 21:48 10.59752 -67.20639 3568 ft 186 kts 89°
2026-05-05 21:48 10.59788 -67.19322 3479 ft 186 kts 89°
2026-05-05 21:48 10.59829 -67.17998 3350 ft 190 kts 87°
2026-05-05 21:48 10.59883 -67.16668 3095 ft 190 kts 88°
2026-05-05 21:49 10.59927 -67.15336 2848 ft 187 kts 88°
2026-05-05 21:49 10.59968 -67.14026 2613 ft 184 kts 88°
2026-05-05 21:49 10.60011 -67.12723 2387 ft 184 kts 89°
2026-05-05 21:49 10.60051 -67.11426 2162 ft 182 kts 87°
2026-05-05 21:50 10.60085 -67.10169 1943 ft 174 kts 89°
2026-05-05 21:50 10.60127 -67.08970 1701 ft 166 kts 86°
2026-05-05 21:50 10.60169 -67.07831 1480 ft 155 kts 88°
2026-05-05 21:50 10.60202 -67.06798 1315 ft 138 kts 88°
2026-05-05 21:51 10.60226 -67.05880 1129 ft 126 kts 88°
2026-05-05 21:51 10.60267 -67.04992 924 ft 125 kts 86°
2026-05-05 21:51 10.60301 -67.04118 795 ft 122 kts 85°
2026-05-05 21:51 10.60347 -67.03253 590 ft 118 kts 90°
2026-05-05 21:52 10.60373 -67.01558 334 ft 126 kts 89°
2026-05-05 21:52 10.60400 -67.00709 239 ft 108 kts 89°
2026-05-05 21:52 10.60419 -67.00080 221 ft 67 kts 88°
2026-05-05 21:53 10.60427 -66.99734 213 ft 28 kts 88°
2026-05-05 21:53 10.60305 -66.99669 208 ft 22 kts 178°
2026-05-05 21:53 10.60178 -66.99671 204 ft 16 kts 196°
2026-05-05 21:53 10.60138 -66.99751 218 ft 12 kts 266°
2026-05-05 21:54 10.60135 -66.99832 213 ft 11 kts 269°
2026-05-05 21:54 10.60120 -66.99900 220 ft 10 kts 231°
2026-05-05 21:54 10.60052 -66.99915 219 ft 11 kts 179°
2026-05-05 21:54 10.59966 -66.99912 218 ft 13 kts 178°
2026-05-05 21:55 10.59913 -66.99969 219 ft 13 kts 266°
2026-05-05 21:55 10.59910 -67.00056 220 ft 8 kts 268°
2026-05-05 21:55 10.59870 -67.00078 220 ft 6 kts 183°
2026-05-05 21:55 10.59839 -67.00077 220 ft 2 kts 179°
2026-05-05 21:56 10.59833 -67.00077 220 ft 0 kts 179°